Theta_e
312 311 310 307 305 303 302 301 301 302 300 299 299 299 299 299 298 298 306 307 306 308 308 310 308 311 311 311 312 314 313 312 310 312 312 313 314 314 315 316 318 322 322 321 319 319 320 326 328 329 328 326 320 322
311 311 311 309 306 304 303 302 301 302 301 300 299 299 298 298 297 296 302 307 305 305 306 304 304 305 307 307 309 310 312 312 313 312 312 312 314 313 315 316 317 318 320 323 324 322 323 323 325 325 321 321 319 319
310 311 311 309 307 305 304 302 301 302 301 300 300 299 297 297 298 297 302 303 305 305 305 305 306 306 306 305 305 308 310 310 312 312 310 309 311 309 310 310 309 312 315 315 313 318 315 319 322 324 323 320 318 317
310 310 310 309 308 306 304 303 302 302 302 301 299 299 297 298 298 298 302 304 304 304 306 308 307 307 307 305 304 304 308 307 308 307 309 309 309 309 308 308 308 307 309 311 309 310 315 312 313 313 316 320 319 317
310 310 310 310 309 307 305 304 302 302 301 300 300 298 295 297 297 298 301 303 304 304 305 305 305 306 305 304 304 304 305 306 305 305 307 307 305 304 304 305 305 306 306 308 308 310 310 309 311 311 309 309 310 312
309 309 310 310 308 306 304 302 302 300 300 300 298 298 299 298 297 302 305 303 302 303 304 304 304 307 305 304 304 305 306 306 305 305 305 304 305 306 305 305 305 305 305 305 306 308 307 308 308 309 310 310 309 309
308 308 308 307 305 303 302 301 300 300 299 299 299 298 297 297 298 302 303 302 299 301 304 304 304 305 305 305 305 306 306 304 304 304 305 305 305 304 304 304 304 305 306 306 305 306 306 306 306 306 307 308 309 309
304 304 303 302 301 300 300 299 298 298 297 298 297 296 296 296 298 300 300 299 297 301 302 304 304 305 305 306 305 305 305 305 305 304 305 304 304 306 306 306 306 306 306 307 307 306 305 305 305 305 305 305 306 306
301 300 300 299 299 299 299 298 298 298 296 296 297 297 299 300 301 302 301 299 299 302 304 304 303 305 306 306 305 306 306 306 306 306 305 306 306 307 306 306 306 306 306 306 306 306 306 306 306 306 306 306 305 306
299 298 299 298 298 298 298 297 296 297 298 297 298 300 302 302 302 299 300 301 301 302 302 302 302 303 303 303 304 305 305 304 303 304 305 306 307 306 306 307 307 307 308 308 308 308 309 308 309 308 308 308 306 305
298 298 297 297 297 297 297 297 297 297 296 300 302 304 303 300 300 302 304 303 304 305 303 303 303 303 303 304 304 305 304 304 305 304 306 305 305 305 305 307 309 310 309 310 309 309 308 308 308 307 307 308 308 307
296 297 297 297 297 298 297 296 296 299 301 301 300 301 301 301 302 303 305 305 305 304 304 304 305 304 306 307 308 307 306 304 304 305 305 304 304 309 310 310 308 307 309 310 308 308 309 309 308 308 308 308 307 305
297 297 297 297 297 296 296 295 297 299 299 301 300 303 304 304 303 303 302 305 305 305 306 307 307 306 307 308 309 307 306 306 305 305 304 306 310 309 309 309 310 309 309 309 309 309 308 308 308 309 309 309 309 309
296 296 297 297 296 295 295 295 295 298 299 303 302 300 303 302 302 303 302 303 305 304 306 307 308 308 307 307 306 306 305 306 306 305 305 310 309 309 309 307 307 309 310 309 309 309 308 308 308 308 307 309 309 309
296 296 296 296 296 296 296 295 296 299 300 302 303 302 301 301 301 303 303 303 304 305 305 307 307 307 307 307 306 306 306 307 307 306 310 310 309 309 308 308 307 307 309 308 307 307 308 308 308 308 308 307 306 307
298 298 297 296 296 296 296 297 297 300 301 302 301 301 302 302 303 304 305 304 303 305 306 306 307 307 307 307 307 306 305 304 307 310 310 309 308 309 309 308 308 308 307 307 308 308 308 307 307 307 307 306 306 307
298 299 296 296 297 296 297 300 300 301 301 302 302 302 302 302 303 303 305 304 305 305 306 307 307 306 307 307 307 305 305 305 305 304 305 307 307 307 306 307 307 307 307 307 307 306 305 305 305 306 306 305 306 308
299 296 295 295 298 297 300 299 300 301 302 302 302 301 302 303 304 304 304 306 306 306 306 306 306 307 306 305 304 304 305 304 305 305 306 306 305 304 305 305 306 306 305 305 306 305 305 305 305 306 305 307 308 311
299 298 295 295 296 298 300 300 299 299 299 301 302 302 303 303 305 306 306 306 307 306 305 304 306 308 306 304 304 304 305 305 305 305 304 303 303 302 303 304 304 304 304 305 304 304 304 305 305 306 308 310 313 314
295 295 296 295 295 299 300 301 300 300 300 302 302 304 305 305 306 306 306 306 305 307 307 308 305 305 305 306 306 305 305 304 303 303 302 302 301 302 302 302 303 303 303 303 304 304 305 306 307 307 308 310 314 313
298 298 296 297 298 298 300 301 302 303 304 304 305 304 304 305 306 306 304 304 302 302 304 305 305 305 303 302 302 302 302 301 302 302 302 301 301 302 302 301 302 302 303 305 306 307 309 312 312 312 311 315 314 313
300 299 300 298 300 300 301 301 302 303 303 303 304 305 304 305 307 307 305 302 302 303 303 303 301 301 300 300 300 300 300 300 300 300 300 301 302 303 303 304 304 304 305 306 307 310 312 316 317 317 315 314 313 312
299 299 300 300 301 300 300 300 302 303 304 305 305 305 305 305 306 306 302 303 303 301 300 299 298 298 298 298 299 299 300 301 302 302 304 306 306 306 306 306 306 306 307 308 310 311 315 318 317 316 314 313 313 313
298 299 300 300 301 301 301 302 301 302 303 304 305 307 307 306 304 306 306 303 301 299 298 298 299 301 302 303 304 305 307 307 307 306 307 307 307 308 308 308 309 309 309 310 311 315 316 316 315 314 313 313 312 312
299 300 300 301 301 301 302 304 304 304 306 306 306 307 307 307 307 305 304 303 300 299 299 299 301 302 306 306 307 307 308 309 309 310 310 311 310 309 311 314 314 313 313 314 314 315 315 315 314 313 312 312 311 311
302 302 301 305 304 302 305 305 308 308 308 308 308 308 309 309 306 305 301 299 298 298 299 301 302 304 305 305 306 307 308 308 308 310 314 315 315 314 314 314 313 313 313 314 314 314 313 313 313 312 312 312 312 311
303 307 306 305 307 306 306 306 307 308 309 308 309 307 306 305 306 303 301 299 300 300 301 302 302 304 305 305 305 306 308 307 309 314 315 314 313 313 312 312 312 314 314 314 313 312 312 312 312 312 312 311 311 312
303 307 309 310 309 310 310 309 309 309 309 308 307 306 305 304 304 301 298 301 300 302 302 302 302 303 304 304 305 306 306 307 308 311 312 314 313 313 313 313 313 313 313 313 313 313 313 313 313 313 312 312 312 312
309 311 311 310 310 307 308 308 309 309 308 308 308 307 307 304 303 303 302 301 301 302 302 301 302 303 304 304 305 305 306 306 307 309 310 312 315 313 313 313 313 312 313 313 313 313 313 312 312 312 311 310 310 310
311 310 311 308 308 309 309 310 309 309 309 309 308 308 306 305 304 303 302 301 301 301 300 300 301 302 304 304 305 305 307 307 307 306 307 308 313 313 313 313 313 312 312 312 310 311 311 311 311 310 309 309 309 309
309 311 310 310 310 311 311 310 309 309 310 310 310 310 309 306 304 302 301 300 301 300 300 300 301 302 303 304 304 305 307 308 309 308 307 309 313 313 313 313 313 313 312 312 312 312 312 311 311 310 309 309 309 309
308 309 308 309 310 310 310 312 311 309 308 308 308 309 309 307 306 303 301 301 300 300 300 300 301 302 303 304 306 306 308 309 310 311 312 312 312 312 313 313 312 313 313 312 312 311 311 310 310 310 309 309 309 309
309 308 307 306 306 306 308 306 309 310 310 309 307 308 307 306 305 304 302 301 300 300 300 300 301 302 303 305 306 307 308 309 310 311 313 313 312 311 312 311 311 312 313 313 313 312 311 311 309 309 309 309 309 309
Wind_Speed
41 38 33 30 27 25 23 21 17 15 13 11 8 6 4 4 5 4 3 4 1 3 7 6 7 5 4 3 1 4 3 1 1 2 2 3 4 5 5 6 7 6 6 7 8 10 12 6 6 3 2 4 9 6
39 39 35 32 29 27 24 21 18 16 14 12 9 7 5 3 3 3 4 5 3 4 5 22 17 17 11 4 2 3 2 2 1 1 1 3 3 4 4 4 5 4 2 3 4 5 6 1 4 6 5 3 3 6
40 39 38 34 30 28 26 24 21 18 16 13 10 8 5 4 3 3 5 5 7 3 7 10 7 21 16 9 4 2 2 3 4 2 1 2 3 3 2 4 7 5 6 2 4 5 7 6 2 4 4 5 6 5
38 37 36 33 31 31 29 28 24 22 19 14 11 8 7 5 4 4 4 6 8 5 3 3 6 4 10 17 11 10 5 3 2 2 2 2 1 1 3 5 7 3 7 5 7 6 6 7 6 7 3 4 5 6
32 35 35 32 33 33 32 28 26 23 17 14 10 8 7 5 4 5 6 5 8 2 3 6 18 14 8 9 9 8 6 3 1 2 3 3 2 2 5 8 14 3 4 2 8 4 4 6 5 5 5 6 6 5
28 31 32 30 33 34 33 28 23 17 15 13 10 7 6 4 2 2 3 2 6 5 2 3 6 5 19 13 10 10 7 3 3 2 3 4 6 1 4 5 5 6 10 8 12 5 7 9 7 4 6 7 6 7
18 20 24 29 35 35 30 24 18 19 15 12 10 7 5 4 2 1 0 3 5 4 2 3 3 5 19 16 10 3 8 3 3 3 5 7 5 3 5 15 12 10 10 14 17 15 13 9 10 8 8 10 16 13
40 40 39 36 33 27 22 24 21 18 15 12 9 6 4 3 3 5 7 0 3 4 4 3 4 3 7 3 2 4 4 4 4 4 2 5 4 6 9 13 17 17 18 17 15 15 16 15 15 16 20 15 15 14
30 29 28 27 28 28 25 22 20 17 14 11 9 8 3 1 3 4 4 1 0 3 2 3 3 3 4 4 3 3 5 4 5 7 9 4 7 8 7 12 15 18 17 16 15 14 9 6 9 12 13 11 10 12
28 27 27 27 26 25 23 21 18 16 14 12 8 4 2 5 7 5 2 1 1 2 3 3 4 6 5 4 3 2 3 5 5 7 6 10 14 18 15 13 11 9 3 4 5 6 6 9 8 9 10 11 12 14
24 23 23 23 22 20 19 19 17 16 12 4 4 1 7 11 4 3 1 3 4 3 4 4 7 7 4 7 5 3 3 3 4 6 4 9 12 12 15 12 6 6 1 2 4 6 5 7 10 11 13 13 15 17
19 18 17 17 17 17 15 14 16 7 3 2 4 3 6 4 2 2 3 4 5 4 5 4 5 6 1 3 3 3 2 3 5 3 3 5 8 5 8 4 4 1 6 7 12 10 11 7 11 11 12 10 16 17
15 15 14 14 14 13 11 11 12 2 5 2 5 5 3 1 2 4 4 3 3 2 5 8 3 3 3 3 1 2 3 4 3 4 5 2 9 12 14 13 14 9 6 7 8 12 13 15 18 16 13 17 19 17
13 13 12 11 10 10 9 9 8 1 2 2 2 1 3 4 5 5 6 6 3 2 3 3 2 2 2 1 1 2 4 3 4 5 9 1 4 6 7 6 9 14 14 14 12 14 15 16 16 17 21 18 15 17
13 12 10 9 9 9 8 8 7 1 2 2 2 3 6 7 7 5 6 3 5 4 2 2 0 3 3 1 3 4 4 5 5 4 1 3 6 6 8 6 8 11 13 13 14 15 17 19 17 17 19 16 19 22
11 10 7 6 6 6 8 8 3 1 3 3 5 6 6 1 6 5 2 4 5 4 2 3 3 3 4 3 5 6 4 5 4 3 2 3 5 6 7 9 12 13 13 13 15 15 14 14 13 15 18 20 22 23
6 4 6 7 7 6 10 3 3 4 4 4 5 6 9 6 7 6 4 5 6 2 3 3 3 6 3 3 4 4 9 10 8 11 7 8 9 11 13 14 13 16 12 13 14 17 19 23 22 19 13 20 20 23
6 6 5 4 4 2 3 3 2 3 6 6 6 7 8 7 5 6 6 3 1 2 3 5 3 5 4 9 11 9 10 10 9 11 11 11 15 18 20 16 14 14 15 19 18 18 19 17 11 10 17 20 21 20
7 4 2 1 1 2 3 4 4 3 4 6 6 7 6 5 3 7 6 7 6 3 1 2 4 3 5 6 9 10 10 10 12 12 13 17 23 20 21 21 22 20 19 18 18 15 17 17 15 15 16 15 9 8
3 5 5 4 2 3 3 2 5 4 4 3 6 6 5 5 3 3 5 3 2 2 2 3 5 8 8 7 7 8 10 10 10 13 15 12 16 18 18 17 14 20 20 20 20 20 16 14 15 16 16 14 6 14
2 3 3 3 3 6 4 3 4 3 5 3 4 5 5 4 3 2 3 2 1 1 2 3 6 8 13 18 21 20 15 14 11 10 13 13 15 17 17 20 21 19 11 8 8 10 13 9 13 12 12 10 22 22
1 5 2 4 3 3 3 4 4 6 3 5 5 2 3 4 3 2 3 1 1 1 2 3 8 10 11 13 14 21 23 24 25 23 25 24 12 10 9 13 11 9 8 10 12 9 14 12 11 10 20 23 27 28
2 1 1 4 3 1 4 2 2 3 2 2 2 2 2 2 2 2 1 2 0 2 10 11 15 21 16 26 26 25 25 21 9 12 17 16 19 19 18 19 17 8 7 13 13 9 10 6 23 27 29 27 24 21
2 1 2 1 2 3 2 1 2 2 3 2 2 3 2 2 2 2 2 2 2 9 8 12 14 9 10 10 8 9 18 19 18 19 22 16 9 11 13 15 13 13 16 15 15 6 11 14 28 28 26 26 22 19
2 3 3 4 3 2 3 2 3 2 2 2 2 3 1 2 1 2 3 3 5 8 9 13 11 8 8 8 9 15 21 17 8 9 20 16 13 10 10 9 4 4 3 7 5 10 12 15 21 36 31 26 20 20
3 5 5 3 2 2 2 3 2 2 2 2 2 3 2 0 3 3 3 5 5 6 10 10 10 9 9 11 10 10 22 27 23 6 11 17 11 5 4 3 2 3 0 8 16 18 20 27 31 35 30 25 23 24
3 4 5 5 3 3 3 4 4 2 2 4 3 4 4 5 4 2 3 4 4 19 24 23 20 14 11 16 21 24 28 30 25 10 14 17 17 17 14 7 3 7 18 21 27 32 32 31 30 26 16 21 30 24
5 4 4 4 5 6 3 2 3 4 3 3 2 5 2 3 2 2 3 17 23 23 22 22 22 22 19 20 21 23 23 25 24 25 21 19 22 22 24 26 27 28 27 28 30 31 30 25 18 21 27 24 23 27
4 3 5 4 4 2 3 3 2 1 1 1 2 1 3 3 2 2 6 15 18 18 18 21 26 28 25 26 25 24 23 25 20 16 16 9 6 16 24 24 26 28 33 31 21 13 18 26 29 29 29 30 29 30
8 4 3 2 3 4 2 3 3 4 3 4 3 2 2 2 3 4 11 15 15 15 18 19 21 22 19 20 20 26 26 24 21 12 6 7 6 14 19 22 23 24 25 15 23 35 32 31 31 29 29 26 26 28
3 6 3 2 5 7 6 3 2 2 4 4 4 4 5 3 5 9 16 15 15 17 20 21 22 24 22 23 21 17 15 28 30 26 20 15 17 14 15 14 16 16 16 20 25 26 25 23 23 25 24 24 26 24
2 1 2 5 3 5 5 5 4 2 1 5 4 4 4 3 3 4 10 14 16 16 19 21 20 24 28 28 28 26 26 23 21 28 20 14 13 12 13 13 16 21 21 23 25 25 23 22 21 22 23 25 24 22
2 3 2 1 1 2 3 1 4 5 3 5 5 4 5 3 4 4 6 16 16 16 18 20 23 25 25 24 24 28 27 25 17 21 17 14 13 13 17 17 21 23 22 19 19 23 21 22 24 23 22 23 21 27
Wind_Direction
219 217 216 215 215 214 213 213 211 208 209 210 224 247 268 301 306 305 245 241 328 289 306 336 356 336 325 301 340 350 19 357 134 164 239 249 258 240 247 251 245 201 181 210 219 234 264 7 38 33 241 19 21 348
221 218 215 211 211 209 208 208 205 202 205 208 218 231 249 271 294 306 283 210 231 240 277 309 289 284 293 359 32 325 295 325 336 172 101 336 342 343 344 286 312 279 186 219 192 209 178 146 155 152 151 134 12 16
224 221 210 206 207 206 203 202 201 199 204 205 211 225 238 246 255 269 279 310 296 255 268 249 246 248 234 236 226 155 40 12 46 296 279 249 286 23 323 297 331 313 22 11 19 18 347 343 232 136 131 138 163 118
221 214 203 203 205 205 201 202 196 198 196 197 201 219 229 232 244 271 288 305 315 287 274 336 46 117 209 212 216 238 266 51 9 350 290 230 224 335 273 278 282 267 332 309 286 319 330 55 30 24 18 232 177 183
220 211 204 204 208 208 201 194 191 186 190 189 195 212 215 224 244 260 261 268 298 245 312 314 313 275 202 177 213 237 236 128 198 275 231 237 202 272 257 269 266 242 263 275 280 303 236 268 283 283 264 261 272 243
215 212 205 207 204 191 179 174 173 168 172 177 184 188 195 209 207 260 232 106 48 23 276 283 353 262 182 175 190 204 213 186 190 221 247 237 239 247 256 254 236 301 308 289 286 276 264 262 274 298 297 301 286 266
173 188 182 169 162 157 155 150 157 159 163 165 175 184 198 205 194 278 341 328 29 356 257 280 265 205 176 172 211 190 222 216 206 233 225 247 259 252 263 264 275 277 282 290 289 298 301 300 291 286 276 278 287 273
128 133 136 137 136 138 146 148 147 153 158 167 170 168 161 168 222 267 226 1 330 298 302 280 267 202 157 189 215 193 205 193 206 214 232 229 246 225 243 248 258 263 260 258 259 259 259 262 267 272 274 273 271 267
111 117 123 128 133 137 140 145 151 156 158 153 146 136 106 218 231 119 154 173 198 300 319 289 270 332 159 240 240 224 176 224 208 221 227 214 229 226 230 243 253 260 263 265 266 260 267 289 297 297 293 251 260 273
111 116 122 127 132 137 143 146 147 144 144 144 135 193 192 160 133 120 73 123 207 261 226 258 284 264 337 322 270 235 216 221 243 246 234 231 247 245 246 252 251 261 10 343 340 329 335 308 293 284 281 321 273 252
114 119 125 130 134 138 141 143 143 138 139 166 218 120 110 138 175 201 197 206 195 225 214 238 221 250 261 249 264 253 301 304 283 273 252 265 265 272 270 258 203 119 189 303 321 298 252 244 265 283 291 284 282 300
113 121 125 128 132 138 143 146 149 143 138 288 299 215 156 198 157 217 222 209 195 240 190 215 218 202 250 48 26 357 280 286 253 280 255 250 267 335 354 25 64 228 248 222 226 235 256 279 274 273 279 278 279 285
110 116 122 129 134 142 148 154 161 130 354 256 205 191 142 192 163 224 217 205 221 254 7 350 41 9 58 62 45 281 274 248 260 236 243 293 22 10 358 348 341 320 272 291 287 309 296 294 286 283 268 276 279 293
107 108 110 119 140 151 149 157 177 240 318 252 206 344 220 208 213 212 250 282 250 231 189 179 308 143 201 88 300 240 241 258 250 258 268 46 7 330 291 311 315 300 303 293 285 283 277 272 267 278 283 270 285 289
101 103 104 112 120 133 149 152 158 114 312 274 225 233 217 233 267 248 226 301 279 236 138 140 125 235 204 248 215 261 255 239 241 283 64 227 228 237 253 267 262 269 278 288 287 282 282 274 268 270 264 276 288 283
97 86 90 101 121 143 129 125 144 253 248 242 233 256 294 356 308 312 293 268 276 275 206 138 238 226 198 218 201 219 246 243 278 284 301 292 268 277 267 268 267 277 279 278 280 291 306 303 289 279 273 271 269 266
42 89 113 89 83 122 155 174 186 226 259 241 236 227 247 254 234 252 181 234 232 198 224 141 263 227 152 233 237 228 248 270 315 312 322 349 345 325 312 297 295 292 289 293 288 287 285 282 279 275 268 269 264 261
67 120 106 99 63 140 212 219 253 253 243 250 277 280 282 278 278 232 216 278 342 250 269 249 269 200 236 255 265 281 293 299 313 316 313 314 315 314 305 303 303 306 308 297 288 285 281 273 268 265 268 262 258 253
114 133 143 143 318 317 245 207 222 272 271 287 283 279 278 289 323 3 6 12 344 303 225 230 247 222 241 273 290 299 313 314 308 305 301 301 305 300 298 301 300 297 292 290 291 284 281 272 263 266 266 266 272 238
245 245 246 260 224 281 265 169 201 256 273 290 287 280 307 291 335 341 324 39 12 343 283 250 261 281 293 317 326 308 300 304 302 299 296 295 293 291 287 288 286 289 291 289 285 280 276 270 251 244 252 263 239 124
305 225 187 159 213 235 278 285 220 246 296 285 304 343 299 310 309 315 306 23 49 280 293 291 294 301 318 309 302 299 292 288 280 276 281 287 288 284 283 282 280 276 272 276 283 291 271 269 248 224 222 177 138 130
335 162 176 192 265 242 255 268 304 321 295 298 312 320 290 291 288 256 116 67 267 289 264 297 307 300 296 291 287 286 281 280 277 275 273 269 272 275 272 275 282 278 278 276 280 283 301 294 233 188 122 112 114 124
307 266 266 195 232 288 268 22 271 292 269 280 265 242 230 243 281 50 53 221 305 273 313 301 291 288 279 282 284 283 278 271 266 263 267 270 268 269 271 275 269 261 266 268 279 292 295 112 123 122 123 124 127 137
278 253 257 269 259 267 293 256 230 256 267 257 263 273 308 335 35 4 351 348 280 304 307 306 305 304 300 281 278 275 278 275 270 276 277 272 273 280 283 278 269 240 237 260 272 241 132 124 126 129 125 125 132 134
232 212 204 239 225 229 247 244 228 248 258 273 292 293 281 235 77 38 346 312 316 328 327 323 323 319 314 320 317 320 322 318 312 301 303 296 272 274 276 286 336 8 17 173 191 148 135 137 139 129 129 132 143 136
259 204 195 243 171 205 271 300 263 275 304 324 277 244 231 79 54 6 326 309 308 315 320 323 321 324 334 331 329 327 324 328 326 322 354 13 27 14 332 328 322 309 193 157 129 117 117 119 124 127 138 155 150 142
259 234 192 223 191 170 226 246 262 282 300 14 11 17 14 25 12 338 288 287 301 322 322 321 323 320 323 326 330 333 341 344 344 336 20 47 50 42 27 19 10 78 119 115 120 121 123 128 136 143 151 141 142 140
237 264 236 180 211 212 267 98 47 31 23 347 60 32 42 360 314 282 260 303 314 320 326 336 341 344 344 340 342 349 352 357 5 19 30 48 45 45 39 60 98 106 104 109 116 122 128 139 155 139 127 127 119 123
242 234 218 225 223 95 65 52 83 114 157 32 81 123 153 191 197 255 321 341 347 345 344 345 346 350 357 0 1 360 3 10 9 2 4 2 47 37 58 64 74 99 112 119 114 121 111 105 107 111 109 113 118 125
187 206 255 115 99 92 54 116 151 168 172 102 102 109 118 153 215 43 11 1 0 357 344 340 344 352 353 354 352 357 2 4 11 5 340 344 4 83 87 74 86 117 125 118 102 102 103 98 101 104 111 114 118 121
204 173 198 19 101 134 157 168 185 200 146 160 186 111 123 140 150 44 23 7 2 357 353 350 350 352 351 351 348 344 346 354 357 7 24 45 68 95 99 88 103 117 132 121 113 108 106 105 104 112 119 122 128 128
179 262 36 133 146 150 181 172 168 230 143 120 85 126 144 144 91 19 3 2 6 3 353 348 346 342 345 348 355 354 347 350 1 12 23 63 88 91 109 104 96 115 116 119 119 122 121 117 113 116 122 129 128 120
84 61 37 12 198 221 121 313 208 189 165 109 95 98 93 56 50 26 25 15 6 354 349 344 342 343 350 358 1 357 2 5 18 26 40 54 77 105 119 100 97 107 112 114 122 130 135 133 131 135 135 134 127 125